Regional Weather Roundup
Issued by NWS

Home | Current Version | Previous Version | Graphics & Text | Print | Product List | Glossary On
Versions: 1 2 3 4 5 6 7 8 9 10 11 12 13 14 15 16 17 18 19 20 21 22 23 24 25 26 27 28 29 30 31 32 33 34 35 36 37 38 39 40 41 42 43 44 45 46 47 48 49 50
967
ASUS44 KLIX 201205
RWRLA
LOUISIANA WEATHER ROUNDUP
NATIONAL WEATHER SERVICE NEW ORLEANS LA
700 AM CDT SAT SEP 20 2014

NOTE: "FAIR" INDICATES FEW OR NO CLOUDS BELOW 12,000 FEET WITH NO
      SIGNIFICANT WEATHER AND/OR OBSTRUCTIONS TO VISIBILITY.
      SKY/WX - SKY CONDITION AND SIGNIFICANT WEATHER.
      TMP - AIR TEMPERATURE.    DP   - DEWPOINT TEMPERATURE.
      RH  - RELATIVE HUMIDITY.  PRES - PRESSURE.
      HX  - HEAT INDEX.         WCI  - WIND CHILL INDEX.

*  THESE STATIONS ARE NOT NWS OR FAA STATIONS AND ARE NOT UNDER
   NWS QUALITY CONTROL.

LAZ040-048-061>063-065-066-069-201300-
SOUTHEAST LOUISIANA

CITY           SKY/WX    TMP DP  RH WIND       PRES   REMARKS
N.O. AUDUBON     N/A     77  72  85 MISG        N/A
6HR MIN TEMP:  76; 6HR MAX TEMP:  79;

N.O. INTL ARPT PTCLDY    78  72  81 E12       29.96R
6HR MIN TEMP:  78; 6HR MAX TEMP:  79;

N.O. LAKEFRONT CLEAR     78  72  81 E17       29.96R
6HR MIN TEMP:  78; 6HR MAX TEMP:  80;

N.O. DOWNTOWN* FAIR      77  68  73 NE6       29.96R
6HR MIN TEMP:  77; 6HR MAX TEMP:  81;

SLIDELL        CLEAR     71  67  87 N5        29.97R
6HR MIN TEMP:  70; 6HR MAX TEMP:  73;

BATON ROUGE    CLEAR     69  67  93 NE6       29.98R
6HR MIN TEMP:  69; 6HR MAX TEMP:  72;

BOOTHVILLE     CLOUDY    81  71  71 E10       29.94R
6HR MIN TEMP:  80; 6HR MAX TEMP:  82;

BELLE CHASSE   PTCLDY    76  70  82 NE7       29.95R
6HR MIN TEMP:  74; 6HR MAX TEMP:  77;

BOGALUSA*        N/A     69  65  89 CALM      30.01R FOG
6HR MIN TEMP:  68; 6HR MAX TEMP:  70;

GALLIANO*      NOT AVBL
NEW ROADS*     FAIR      68  67  97 NE5       29.98R
6HR MIN TEMP:  68; 6HR MAX TEMP:  71;

GONZALES*      FAIR      71  71 100 NE3       29.96R
6HR MIN TEMP:  70; 6HR MAX TEMP:  72;

HAMMOND*       CLEAR     70  66  88 NE3       30.00R
HOUMA*         PTCLDY    72  66  83 N6        29.94R
PORT FOURCHON* PTSUNNY   81  72  74 E16       29.95R

$$

LAZ041-044-053-054-201300-
SOUTHWEST LOUISIANA

CITY           SKY/WX    TMP DP  RH WIND       PRES   REMARKS
LAKE CHARLES   CLEAR     71  69  93 NE8       29.95R
6HR MIN TEMP:  71; 6HR MAX TEMP:  74;

LAFAYETTE      CLEAR     71  70  96 NE3       29.97R
6HR MIN TEMP:  70; 6HR MAX TEMP:  73;

PATTERSON      PTCLDY    72  70  94 NE6         N/A
6HR MIN TEMP:  72; 6HR MAX TEMP:  73;

SALT POINT       N/A     75  71  87 VRB3      29.93R
6HR MIN TEMP:  75; 6HR MAX TEMP:  76; 6HR PCP:  0.02;

NEW IBERIA     CLEAR     73  69  87 NE8       29.97R
6HR MIN TEMP:  73; 6HR MAX TEMP:  74;

CHENAULT AIRPK CLEAR     70  70 100 NE6       29.96R

$$

LAZ027-028-201300-
CENTRAL LOUISIANA

CITY           SKY/WX    TMP DP  RH WIND       PRES   REMARKS
FORT POLK      CLEAR     69  68  96 CALM      29.98R
6HR MIN TEMP:  68; 6HR MAX TEMP:  73;

ALEXANDRIA INT CLEAR     66  66 100 CALM      29.98R FOG
6HR MIN TEMP:  66; 6HR MAX TEMP:  73;

ALEXANDRIA     CLEAR     66  63  90 CALM      30.00R
6HR MIN TEMP:  66; 6HR MAX TEMP:  72;


$$

LAZ001-002-201300-
NORTHWEST LOUISIANA

CITY           SKY/WX    TMP DP  RH WIND       PRES   REMARKS
SHREVEPORT     CLEAR     69  67  93 CALM      30.00R
6HR MIN TEMP:  69; 6HR MAX TEMP:  74;

BARKSDALE AFB  CLEAR     69  69 100 CALM      30.00R
6HR MIN TEMP:  69; 6HR MAX TEMP:  74;

DTN SHREVEPORT CLEAR     70  32  24 CALM      30.00R
6HR MIN TEMP:  69; 6HR MAX TEMP:  73;


$$

LAZ014-016-201300-
NORTHEAST LOUISIANA

CITY           SKY/WX    TMP DP  RH WIND       PRES   REMARKS
MONROE         CLEAR     66  66 100 CALM      30.02R FOG
6HR MIN TEMP:  66; 6HR MAX TEMP:  71; 6HR PCP:  0.01;

TALLULAH       CLEAR     66  65  96 SW3       30.01R
6HR MIN TEMP:  64; 6HR MAX TEMP:  69;


$$




USA.gov is the U.S. government's official web portal to all federal, state and local government web resources and services.